Flag for U.S.A. Weather past 2 weeks in Tyler, Texas, U.S.A.

Now
43 °F

Clear.


Feels Like: 38 °F
Forecast: 43 / 58 °F
Wind: 9 mph from Northeast

Location: Tyler Pounds Field

Current Time: Jan 30, 2015 at 6:48:58 AM

Latest Report: Jan 30, 2015 at 5:53 AM


Visibility: 10 mi

Pressure: 30.43 "Hg

Humidity: 62%

Dew point: 31 °F

Location of TylerLocation

Historic Weather in Tyler — Graph

°F

Tyler temperature yesterday

Maximum temperature yesterday: 74 °F (at 2:53 PM)
Minimum temperature yesterday: 49 °F (at 11:53 PM)
Average temperature yesterday: 60 °F

Past Weeks' High & Low Weather Summary

 TemperatureHumidityPressure
High79 °F (Jan 27, 3:53 PM)97% (Jan 20, 3:53 AM)30.43 "Hg (Jan 20, 3:53 AM)
Low29 °F (Jan 16, 5:53 AM)16% (Jan 18, 3:53 PM)29.90 "Hg (Jan 20, 2:53 PM)
Average52 °F59%30.13 "Hg
* Reported Jan 15 5:53 AM — Jan 30 5:53 AM, Tyler, Weather by CustomWeather, © 2014

Note: Actual official high and low records may vary slightly from our data, if they occured in-between our weather recording intervals... More about our weather records

Advertising

Tyler weather history for previous 24 hours

 ConditionsComfort  
Time TempWeatherWind HumidityBarometerVisibility
5:53 AM
Jan 30
43 °FClear.9 mph62%30.43 "Hg10 mi
4:53 AM44 °FClear.8 mph63%30.42 "Hg10 mi
3:53 AM45 °FClear.9 mph60%30.42 "Hg10 mi
2:53 AM47 °FClear.9 mph56%30.42 "Hg10 mi
1:53 AM47 °FClear.7 mph56%30.42 "Hg10 mi
12:53 AM48 °FClear.8 mph54%30.42 "Hg10 mi
11:53 PM
Jan 29
49 °FClear.7 mph55%30.43 "Hg10 mi
10:53 PM50 °FClear.9 mph52%30.42 "Hg10 mi
9:53 PM51 °FClear.15 mph48%30.41 "Hg10 mi
8:53 PM53 °FClear.14 mph45%30.39 "Hg10 mi
7:53 PM56 °FClear.18 mph46%30.35 "Hg10 mi
6:53 PM61 °FClear.16 mph42%30.31 "Hg10 mi
5:53 PM63 °FClear.8 mph40%30.27 "Hg10 mi
4:53 PM66 °FSunny.15 mph36%30.24 "Hg10 mi
3:53 PM71 °FSunny.16 mph29%30.22 "Hg10 mi
2:53 PM74 °FSunny.12 mph28%30.20 "Hg10 mi
1:53 PM73 °FSunny.14 mph29%30.19 "Hg10 mi
12:53 PM71 °FSunny.9 mph35%30.20 "Hg10 mi
11:53 AM69 °FSunny.6 mph45%30.22 "Hg10 mi
10:53 AM66 °FSunny.9 mph59%30.23 "Hg10 mi
9:53 AM62 °FSunny.12 mph73%30.21 "Hg10 mi
8:53 AM58 °FLow clouds.9 mph87%30.19 "Hg9 mi
7:53 AM56 °FSunny.7 mph90%30.16 "Hg10 mi
6:53 AM57 °FClear.12 mph87%30.12 "Hg10 mi
Weather by CustomWeather, © 2014

See weather overviewHow to use our weather pages